�T�ԕ��σ��[�g���ڕ\,,,,
2011/11�`2014/12,,,,
,,,,
End Date,USD/JPY,USD/EUR,USD/CAD,USD/AUD
2014/12/28,120.27,0.8196,1.162,1.231
2014/12/21,118.51,0.8099,1.1611,1.2226
2014/12/14,119.26,0.8063,1.1508,1.2075
2014/12/7,119.99,0.8091,1.1396,1.1908
2014/11/30,118.11,0.8029,1.1322,1.1696
2014/11/23,117.41,0.8013,1.1284,1.1524
2014/11/16,115.65,0.8015,1.1325,1.1484
2014/11/9,114.27,0.8017,1.1364,1.1555
2014/11/2,109.81,0.7921,1.1223,1.1343
2014/10/26,107.54,0.7875,1.124,1.1378
2014/10/19,106.76,0.7849,1.126,1.1427
2014/10/12,108.17,0.7909,1.1177,1.143
2014/10/5,109.4,0.7934,1.1191,1.1464
2014/9/28,109,0.7831,1.1088,1.1329
2014/9/21,108.19,0.7755,1.099,1.1129
2014/9/14,106.69,0.773,1.1013,1.0932
2014/9/7,104.91,0.7665,1.0885,1.07
2014/8/31,103.96,0.7592,1.0899,1.0715
2014/8/24,103.41,0.7523,1.0932,1.074
2014/8/17,102.34,0.7472,1.0915,1.0751
2014/8/10,102.24,0.7465,1.0944,1.0756
2014/8/3,102.42,0.7452,1.0878,1.0703
2014/7/27,101.61,0.7425,1.0761,1.063
2014/7/20,101.45,0.7379,1.0739,1.066
2014/7/13,101.51,0.7347,1.0685,1.0649
2014/7/6,101.8,0.7334,1.0653,1.0638
2014/6/29,101.67,0.734,1.0702,1.0621
2014/6/22,102,0.7362,1.0815,1.0656
2014/6/15,102.13,0.7375,1.0877,1.065
2014/6/8,102.43,0.7338,1.0917,1.0753
2014/6/1,101.78,0.7338,1.085,1.0778
2014/5/25,101.61,0.7316,1.0883,1.0801
2014/5/18,101.78,0.7291,1.088,1.0675
2014/5/11,101.81,0.7221,1.09,1.0704
2014/5/4,102.31,0.7215,1.098,1.0783
2014/4/27,102.36,0.7234,1.1029,1.0752
2014/4/20,102.14,0.7234,1.1,1.0684
2014/4/13,102.02,0.723,1.0947,1.0677
2014/4/6,103.48,0.7275,1.1016,1.0798
2014/3/30,102.42,0.7258,1.1111,1.086
2014/3/23,101.99,0.7222,1.1175,1.1016
2014/3/16,102.27,0.7198,1.1099,1.1081
2014/3/9,102.52,0.7243,1.1062,1.109
2014/3/2,102.1,0.7272,1.1089,1.1152
2014/2/23,102.26,0.7282,1.1046,1.1105
2014/2/16,102.1,0.732,1.1,1.1101
2014/2/9,101.83,0.7372,1.1063,1.1223
2014/2/2,102.41,0.7359,1.1132,1.1417
2014/1/26,103.51,0.7345,1.1043,1.141
2014/1/19,104.12,0.7349,1.0935,1.1261
2014/1/12,104.51,0.7338,1.0802,1.1179
2014/1/5,104.97,0.7301,1.0642,1.1201
2013/12/29,104.62,0.7291,1.065,1.1233
2013/12/22,103.62,0.7295,1.0634,1.1222
2013/12/15,103.06,0.7272,1.0611,1.1075
2013/12/8,102.57,0.7336,1.0647,1.1004
2013/12/1,102.02,0.7366,1.0578,1.0963
2013/11/24,100.62,0.7399,1.0481,1.0764
2013/11/17,99.77,0.7435,1.0464,1.07
2013/11/10,98.68,0.7437,1.0447,1.0575
2013/11/3,98.22,0.733,1.0439,1.0538
2013/10/27,97.6,0.7264,1.0377,1.0385
2013/10/20,98.1,0.7347,1.0319,1.043
2013/10/13,97.79,0.738,1.0356,1.0581
2013/10/6,97.6,0.7374,1.0313,1.0644
2013/9/29,98.6,0.7402,1.0302,1.068
2013/9/22,99.11,0.7431,1.0288,1.0645
2013/9/15,99.65,0.7532,1.0348,1.0801
2013/9/8,99.38,0.7589,1.0476,1.0967
2013/9/1,98.03,0.7521,1.0515,1.1176
2013/8/25,98.16,0.7479,1.0449,1.1046
2013/8/18,97.53,0.7515,1.0324,1.092
2013/8/11,96.99,0.7504,1.0347,1.1029
2013/8/4,98.54,0.7538,1.0326,1.1105
2013/7/28,99.2,0.7556,1.0298,1.0819
2013/7/21,100.02,0.7624,1.0388,1.0899
2013/7/14,99.91,0.7711,1.0455,1.0963
2013/7/7,100.34,0.7729,1.0539,1.0959
2013/6/30,98.36,0.7662,1.0496,1.0842
2013/6/23,96.55,0.7545,1.0316,1.0694
2013/6/16,95.72,0.7512,1.0183,1.0508
2013/6/9,98.61,0.7609,1.0278,1.0453
2013/6/2,101.02,0.7715,1.0353,1.0399
2013/5/26,102.02,0.7748,1.0306,1.029
2013/5/19,102.44,0.7754,1.0199,1.016
2013/5/12,100.11,0.7655,1.0071,0.9866
2013/5/5,98.1,0.7622,1.0092,0.9696
2013/4/28,98.87,0.7675,1.0218,0.9727
2013/4/21,98.48,0.7647,1.0242,0.968
2013/4/14,98.96,0.7646,1.0142,0.9528
2013/4/7,95.24,0.7754,1.0157,0.9594
2013/3/31,94.28,0.7786,1.0178,0.9579
2013/3/24,94.94,0.7725,1.0239,0.9606
2013/3/17,95.82,0.7675,1.0237,0.9667
2013/3/10,94.55,0.7676,1.0287,0.9771
2013/3/3,92.85,0.7644,1.0262,0.9771
2013/2/24,93.49,0.7535,1.0162,0.9701
2013/2/17,93.35,0.7468,1.0042,0.9694
2013/2/10,92.99,0.7423,0.9987,0.9663
2013/2/3,91.62,0.7375,1.001,0.9597
2013/1/27,89.87,0.7476,0.9993,0.9536
2013/1/20,89.39,0.75,0.9874,0.9492
2013/1/13,88.33,0.7582,0.9855,0.9499
2013/1/6,87.3,0.7613,0.9894,0.9569
2012/12/30,85.44,0.7568,0.9939,0.9638
2012/12/23,84.14,0.7575,0.9888,0.9546
2012/12/16,83.1,0.7658,0.9856,0.9493
2012/12/9,82.32,0.7689,0.9911,0.9553
2012/12/2,82.25,0.771,0.9933,0.9574
2012/11/25,82.05,0.777,0.9959,0.9607
2012/11/18,80.46,0.7853,1.001,0.9638
2012/11/11,79.84,0.7836,0.9975,0.9615
2012/11/4,80.03,0.7748,0.9979,0.9651
2012/10/28,79.8,0.7707,0.9945,0.967
2012/10/21,79.04,0.767,0.9858,0.969
2012/10/14,78.34,0.773,0.9787,0.9774
2012/10/7,78.39,0.7714,0.9817,0.9757
2012/9/30,77.82,0.7756,0.9815,0.9614
2012/9/23,78.37,0.7677,0.9751,0.9558
2012/9/16,78.06,0.7717,0.973,0.9544
2012/9/9,78.4,0.7894,0.9836,0.9715
2012/9/2,78.53,0.797,0.9887,0.9666
2012/8/26,78.92,0.8015,0.9906,0.9575
2012/8/19,79.06,0.8112,0.9899,0.9544
2012/8/12,78.38,0.8104,0.9947,0.9462
2012/8/5,78.31,0.8129,1.0026,0.9508
2012/7/29,78.29,0.819,1.0116,0.9645
2012/7/22,78.73,0.8176,1.0121,0.9669
2012/7/15,79.35,0.8161,1.0178,0.9801
2012/7/8,79.73,0.803,1.0161,0.9757
2012/7/1,79.65,0.7966,1.0235,0.9882
2012/6/24,79.73,0.7926,1.0229,0.9891
2012/6/17,79.16,0.7945,1.0246,1.0001
2012/6/10,79.04,0.7994,1.0318,1.0152
2012/6/3,78.73,0.8032,1.0319,1.0251
2012/5/27,79.55,0.7923,1.0245,1.021
2012/5/20,79.64,0.7831,1.0129,1.0091
2012/5/13,79.83,0.7714,0.9995,0.9913
2012/5/6,80.02,0.7599,0.9891,0.9717
2012/4/29,80.85,0.7567,0.9852,0.9631
2012/4/22,81.23,0.7606,0.9934,0.9646
2012/4/15,81.01,0.763,0.999,0.9666
2012/4/8,82.13,0.7591,0.9946,0.9683
2012/4/1,82.72,0.7503,0.9966,0.9604
2012/3/25,82.97,0.7557,0.9944,0.954
2012/3/18,83.16,0.7623,0.9915,0.9488
2012/3/11,81.66,0.7594,0.9937,0.9426
2012/3/4,81.14,0.7504,0.9915,0.9298
2012/2/26,80.32,0.7502,0.9971,0.9344
2012/2/19,78.69,0.7608,0.9981,0.9326
2012/2/12,77.19,0.7574,0.9975,0.9313
2012/2/5,76.38,0.7606,0.9982,0.9352
2012/1/29,77.17,0.7636,1.0053,0.9448
2012/1/22,76.89,0.7788,1.0141,0.9604
2012/1/15,76.87,0.7853,1.0212,0.9709
2012/1/8,76.89,0.7776,1.0197,0.9736
2012/1/1,77.51,0.7695,1.0207,0.9836
2011/12/25,77.99,0.7661,1.0262,0.9913
2011/12/18,77.84,0.7643,1.0333,0.9991
2011/12/11,77.68,0.7467,1.0157,0.9776
2011/12/4,77.84,0.7467,1.0238,0.988
2011/11/27,77.27,0.7481,1.0429,1.0233
2011/11/20,76.95,0.7382,1.0234,0.9906
2011/11/13,77.57,0.7292,1.0149,0.974
2011/11/6,78.1,0.7243,1.0123,0.9615
2011/10/30,75.93,0.7127,0.9996,0.9471
2011/10/23,76.63,0.724,1.0131,0.9722
2011/10/16,76.94,0.7275,1.0198,0.9861
2011/10/9,76.75,0.7494,1.0447,1.034
2011/10/2,76.69,0.7407,1.0358,1.0235
2011/9/25,76.5,0.7365,1.0107,1.0004
2011/9/18,76.86,0.7278,0.9866,0.9684
2011/9/11,77.32,0.7188,0.9909,0.9484
2011/9/4,76.76,0.6974,0.9799,0.9375
2011/8/28,76.8,0.6926,0.9857,0.9525
2011/8/21,76.62,0.6951,0.9862,0.9578
2011/8/14,76.95,0.7017,0.9878,0.9708
2011/8/7,77.95,0.701,0.9688,0.9377
2011/7/31,77.57,0.6947,0.9497,0.9116
2011/7/24,78.74,0.7014,0.9499,0.9293
2011/7/17,79.41,0.7082,0.9599,0.9369
2011/7/10,80.85,0.6961,0.9616,0.9313
2011/7/3,80.78,0.6935,0.9707,0.9395
2011/6/26,80.33,0.7008,0.9804,0.9485
2011/6/19,80.36,0.699,0.9776,0.9428
2011/6/12,80.16,0.6888,0.978,0.941
2011/6/5,80.75,0.6912,0.9755,0.9351
2011/5/29,81.42,0.7055,0.977,0.9422
2011/5/22,81.45,0.7041,0.9718,0.9406
2011/5/15,80.76,0.7019,0.9638,0.9359
2011/5/8,80.72,0.6838,0.9589,0.9276
2011/5/1,81.59,0.6787,0.9494,0.9201
2011/4/24,82.23,0.691,0.9555,0.9383
2011/4/17,83.66,0.6919,0.9598,0.9498
2011/4/10,84.77,0.6975,0.9596,0.9562
2011/4/3,83.03,0.7065,0.9701,0.9682
2011/3/27,81.09,0.707,0.9792,0.9841
2011/3/20,80.69,0.7122,0.9831,1.0057
2011/3/13,82.34,0.7192,0.9722,0.9898
2011/3/6,82.08,0.7199,0.9732,0.9853
2011/2/27,82.28,0.7283,0.983,0.9899
2011/2/20,83.37,0.7359,0.9861,0.9927
2011/2/13,82.84,0.7354,0.9909,0.9926
2011/2/6,81.86,0.7311,0.9911,0.9908
2011/1/30,82.36,0.7325,0.9969,1.006
,,,,
���ԕ���,90.81,0.7508,1.031,1.02
���ԍŒ�,75.93,0.6787,0.9494,0.9116
���ԍō�,120.27,0.8196,1.162,1.231
